CZ-4B R/B, 37782

Orbit data source: Space-Track

CZ-4B R/B, 37782 is space debris in SSO originally from a launch on Mon, 15 Aug 2011 UTC launched from the Taiyaun Space Center, China (TSC). Debris objects in space refer to the collection of defunct objects orbiting the Earth. Examples of debris include non-operational satellites, rocket bodies, and fragments generated from explosions, collisions, or faulty payload assembly.

Loading next visibility...
Identifier
37782, 2011-043B
Orbit
SSO
Country
Flag of CNCN / PRC
Related business
Manufacturer
SAST
Mission
Spacecraft
Bus & Motor
CZ-4 STAGE 3, Unknown motor
Mass
~1,000 kg wet, ~1,000 kg dry
Launch date (UTC)
2011-08-15 (15 years ago)
Launch vehicle
Unknown
Launch site
Taiyaun Space Center, China (TSC)
Object type
Payload
Rocket body
Debris
Shape & HBR
Cyl, 2.5 m
Radar Cross Section
14.536 m², Large (>1 m²)

Expand to show TLE details & history
Last TLE update: 2 days ago

TLE from 2 days ago
0 CZ-4B R/B
1 37782U 11043B   26171.43886338  .00000139  00000-0  51750-4 0  9991
2 37782  99.4095  59.3577 0189125 128.3489 233.4862 14.39338181778991
Epoch: 2026-06-20T10:31Z
TLE epoch observation values (Epoch: 2026-06-20T10:31:57.796Z)
Latitude
-0.00001°
Longitude
-7.28659°
Altitude
845.579 km
Speed
7.387 km/s
True Right ascension
03h 57m 25s
True Declination
0° 00' 00"
Sunlit
Object was in daylight at epoch
Visualization orbit readout
Latitude
Unknown
Longitude
Unknown
Altitude
Unknown
Speed
Unknown
Apparent Right ascension
Unknown
Apparent Declination
Unknown
Sunlit
N/A
Visualization observer readout
Local Sidereal Time
23:27:02
Azimuth
Unknown
Elevation
Unknown
Doppler factor
Unknown
Orbital elements
Apogee altitude
892.812 km
Perigee altitude
622.893 km
Semi-major axis
7,135.989 km
Eccentricity
0.01891
Inclination
99.4095°
RAAN
59.3577°
Arg. of periapsis
128.3489°
True anomaly
231.76881°
Mean anomaly
233.4862°
Eccentric anomaly
232.62508°
Mean motion
3.60049 °/min
Orbital period
99.99 mins
BSTAR
0.00005175
Loading maneuver chart data...
Computing Atmospheric mass density...
Loading historical data...
Loading historical data...
Loading historical data...
Loading historical data...
Loading historical data...
Loading historical data...
Loading historical data...

Documentation

Showing up to 5 results
|